deformed-offering
Saratoga-Weather Station Historical Data
 
Daily Summary for July 19, 2024 Units:  English    Metric   Both
Daily Weekly Monthly Yearly
  Current: High: Low: Average:
Temperature: 88.2 °F 99.4 °F 58.9 °F 77.3 °F
Dew Point: 59.2 °F 60.1 °F 42.6 °F 53.7 °F
Humidity: 37.7% 85% 15% 54%
Wind Speed: 0.3mph 5.3mph 0mph 1.5mph
Wind Gust: 2.3mph 16.1mph - -
WindNNW - - WSW
Pressure: 29.90 in 29.98 in 29.87 in -
Precipitation: 0.00 in      
 
 
Tabular Data for July 19, 2024
Time Temperature Dew Point Pressure Wind Wind Speed Wind Gust Humidity Rainfall Rate (Hourly) solar
00:09 66.4 °F 56.8 °F 29.98 in Calm     71.4% 0.00 in 0 W/m2
00:14 66.2 °F 56.9 °F 29.98 in Calm     72% 0.00 in 0 W/m2
00:19 66 °F 56.7 °F 29.98 in Calm   1.2 mph 72% 0.00 in 0 W/m2
00:24 66 °F 56.7 °F 29.98 in Calm   1 mph 72% 0.00 in 0 W/m2
00:29 65.8 °F 56.9 °F 29.98 in Calm     72.9% 0.00 in 0 W/m2
00:34 65.6 °F 56.8 °F 29.98 in Calm     73.2% 0.00 in 0 W/m2
00:39 65.5 °F 57 °F 29.98 in Calm     74% 0.00 in 0 W/m2
00:44 65.4 °F 57 °F 29.98 in Calm     74.2% 0.00 in 0 W/m2
00:49 65.2 °F 57.3 °F 29.98 in Calm     75.4% 0.00 in 0 W/m2
00:54 65.1 °F 57.3 °F 29.98 in Calm     76% 0.00 in 0 W/m2
00:59 64.9 °F 57.2 °F 29.98 in Calm     76% 0.00 in 0 W/m2
01:04 64.8 °F 57.2 °F 29.98 in Calm     76.6% 0.00 in 0 W/m2
01:09 64.6 °F 57.2 °F 29.98 in Calm     77% 0.00 in 0 W/m2
01:14 64.4 °F 57 °F 29.98 in Calm     77% 0.00 in 0 W/m2
01:19 64.3 °F 57.1 °F 29.98 in Calm     77.4% 0.00 in 0 W/m2
01:24 64.2 °F 57.2 °F 29.97 in Calm     78% 0.00 in 0 W/m2
01:29 64 °F 57 °F 29.97 in Calm     78% 0.00 in 0 W/m2
01:34 63.9 °F 56.9 °F 29.97 in Calm     78% 0.00 in 0 W/m2
01:39 63.9 °F 57 °F 29.97 in Calm     78.3% 0.00 in 0 W/m2
01:44 63.7 °F 57.1 °F 29.97 in Calm     79% 0.00 in 0 W/m2
01:49 63.6 °F 57 °F 29.97 in Calm     79% 0.00 in 0 W/m2
01:54 63.5 °F 56.9 °F 29.96 in Calm     79% 0.00 in 0 W/m2
01:59 63.3 °F 56.7 °F 29.96 in Calm     79% 0.00 in 0 W/m2
02:04 63.2 °F 56.8 °F 29.96 in Calm     79.6% 0.00 in 0 W/m2
02:09 63.1 °F 56.8 °F 29.96 in Calm     80% 0.00 in 0 W/m2
02:14 63 °F 56.7 °F 29.96 in Calm     80% 0.00 in 0 W/m2
02:19 62.8 °F 56.5 °F 29.96 in Calm     80% 0.00 in 0 W/m2
02:24 62.6 °F 56.3 °F 29.96 in Calm     80% 0.00 in 0 W/m2
02:29 62.5 °F 56.2 °F 29.96 in Calm     80% 0.00 in 0 W/m2
02:34 62.4 °F 56.1 °F 29.96 in Calm     80% 0.00 in 0 W/m2
02:39 62.3 °F 56 °F 29.96 in Calm     80% 0.00 in 0 W/m2
02:44 62.2 °F 56 °F 29.96 in Calm     80% 0.00 in 0 W/m2
02:49 62.1 °F 55.9 °F 29.95 in Calm     80% 0.00 in 0 W/m2
02:54 62 °F 55.9 °F 29.95 in Calm     80.2% 0.00 in 0 W/m2
02:59 61.9 °F 56 °F 29.95 in Calm     81% 0.00 in 0 W/m2
03:04 61.8 °F 55.9 °F 29.96 in Calm     81% 0.00 in 0 W/m2
03:09 61.8 °F 55.9 °F 29.96 in Calm     81% 0.00 in 0 W/m2
03:14 61.6 °F 55.7 °F 29.96 in Calm     81% 0.00 in 0 W/m2
03:19 61.6 °F 55.7 °F 29.96 in Calm     81% 0.00 in 0 W/m2
03:24 61.5 °F 55.6 °F 29.95 in Calm     80.9% 0.00 in 0 W/m2
03:29 61.3 °F 55.1 °F 29.95 in Calm     80% 0.00 in 0 W/m2
03:34 61.3 °F 55.1 °F 29.95 in Calm     80% 0.00 in 0 W/m2
03:39 61.2 °F 55 °F 29.96 in Calm     80% 0.00 in 0 W/m2
03:44 61 °F 54.5 °F 29.96 in Calm     79.1% 0.00 in 0 W/m2
03:49 60.9 °F 54.3 °F 29.96 in Calm     79% 0.00 in 0 W/m2
03:54 60.8 °F 54.2 °F 29.96 in Calm     79% 0.00 in 0 W/m2
03:59 60.7 °F 54.1 °F 29.96 in Calm     79% 0.00 in 0 W/m2
04:04 60.5 °F 54 °F 29.95 in Calm     78.8% 0.00 in 0 W/m2
04:09 60.4 °F 53.9 °F 29.95 in Calm     79% 0.00 in 0 W/m2
04:14 60.4 °F 53.9 °F 29.95 in Calm     79% 0.00 in 0 W/m2
04:19 60.3 °F 53.8 °F 29.95 in Calm     79% 0.00 in 0 W/m2
04:24 60.2 °F 53.9 °F 29.95 in Calm     79.6% 0.00 in 0 W/m2
04:29 60.2 °F 54 °F 29.95 in Calm     80% 0.00 in 0 W/m2
04:34 60.2 °F 54 °F 29.95 in Calm     80% 0.00 in 0 W/m2
04:39 60.2 °F 54.1 °F 29.96 in Calm     80.3% 0.00 in 0 W/m2
04:44 60.1 °F 54.2 °F 29.96 in Calm     81% 0.00 in 0 W/m2
04:49 60.1 °F 54.2 °F 29.95 in Calm     81% 0.00 in 0 W/m2
04:54 60.1 °F 54.2 °F 29.95 in Calm     81% 0.00 in 0 W/m2
04:59 59.9 °F 54.1 °F 29.96 in Calm     81% 0.00 in 0 W/m2
05:04 59.9 °F 54.1 °F 29.95 in Calm     81% 0.00 in 0 W/m2
05:09 59.8 °F 54 °F 29.96 in Calm     81% 0.00 in 0 W/m2
05:14 59.7 °F 53.9 °F 29.96 in Calm     81% 0.00 in 0 W/m2
05:19 59.6 °F 54 °F 29.96 in Calm     81.6% 0.00 in 0 W/m2
05:24 59.6 °F 54.1 °F 29.96 in Calm     82% 0.00 in 0 W/m2
05:29 59.6 °F 54.1 °F 29.96 in Calm     82% 0.00 in 0 W/m2
05:34 59.5 °F 54.3 °F 29.96 in Calm     82.9% 0.00 in 0 W/m2
05:39 59.5 °F 54.2 °F 29.96 in Calm     82.6% 0.00 in 0 W/m2
05:44 59.4 °F 53.9 °F 29.96 in Calm     82% 0.00 in 0 W/m2
05:49 59.3 °F 53.8 °F 29.95 in Calm     82% 0.00 in 0 W/m2
05:54 59.2 °F 53.7 °F 29.95 in Calm     82% 0.00 in 0 W/m2
05:59 59.2 °F 53.7 °F 29.95 in Calm     82.3% 0.00 in 0 W/m2
06:04 59 °F 53.8 °F 29.96 in Calm     82.9% 0.00 in 0 W/m2
06:09 59 °F 53.7 °F 29.96 in Calm     82.8% 0.00 in 0 W/m2
06:14 58.9 °F 53.4 °F 29.96 in Calm     82% 0.00 in 5 W/m2
06:19 58.9 °F 53.4 °F 29.96 in Calm     82.1% 0.00 in 25 W/m2
06:24 58.9 °F 53.7 °F 29.96 in Calm     83% 0.00 in 33 W/m2
06:29 58.9 °F 53.7 °F 29.96 in Calm     83% 0.00 in 40 W/m2
06:34 58.9 °F 53.7 °F 29.97 in Calm     83.1% 0.00 in 49 W/m2
06:39 59 °F 54.2 °F 29.97 in Calm     84% 0.00 in 70 W/m2
06:44 59.2 °F 54.7 °F 29.97 in Calm     84.9% 0.00 in 84 W/m2
06:49 59.4 °F 54.9 °F 29.97 in Calm     85% 0.00 in 99 W/m2
06:54 59.7 °F 55.1 °F 29.97 in Calm     84.6% 0.00 in 113 W/m2
06:59 60 °F 55.1 °F 29.97 in Calm     84% 0.00 in 125 W/m2
07:04 60.1 °F 55.2 °F 29.97 in Calm     84% 0.00 in 141 W/m2
07:09 60.3 °F 55.4 °F 29.97 in Calm     84% 0.00 in 157 W/m2
07:14 60.6 °F 55.7 °F 29.97 in Calm     84% 0.00 in 174 W/m2
07:19 60.8 °F 55.9 °F 29.97 in Calm     84% 0.00 in 188 W/m2
07:24 61.1 °F 56.5 °F 29.97 in Calm     84.7% 0.00 in 202 W/m2
07:29 61.4 °F 56.7 °F 29.97 in Calm     84.5% 0.00 in 218 W/m2
07:34 61.7 °F 56.8 °F 29.98 in Calm     84.2% 0.00 in 232 W/m2
07:39 62 °F 57.3 °F 29.98 in Calm   1.2 mph 84.7% 0.00 in 248 W/m2
07:44 62.5 °F 57.9 °F 29.98 in Calm   1 mph 84.8% 0.00 in 262 W/m2
07:49 63.1 °F 58.1 °F 29.98 in Calm     83.8% 0.00 in 276 W/m2
07:54 63.4 °F 57.9 °F 29.98 in Calm     82.4% 0.00 in 292 W/m2
07:59 63.6 °F 58 °F 29.98 in Calm     82% 0.00 in 308 W/m2
08:04 63.9 °F 58.3 °F 29.98 in Calm     82% 0.00 in 324 W/m2
08:09 64.1 °F 58.3 °F 29.98 in Calm     81.6% 0.00 in 338 W/m2
08:14 64.3 °F 58.4 °F 29.98 in Calm     81.3% 0.00 in 352 W/m2
08:19 64.6 °F 58.4 °F 29.98 in Calm     80.3% 0.00 in 366 W/m2
08:24 64.8 °F 58.5 °F 29.98 in Calm     80% 0.00 in 380 W/m2
08:29 65.1 °F 58.8 °F 29.98 in ENE 1 mph 4 mph 80% 0.00 in 394 W/m2
08:34 65.3 °F 59 °F 29.98 in ENE 0.8 mph 4 mph 80% 0.00 in 408 W/m2
08:39 65.7 °F 58.8 °F 29.98 in NE 0.6 mph 3 mph 78.5% 0.00 in 422 W/m2
08:44 66 °F 58.9 °F 29.98 in NNE 1.2 mph 3.5 mph 78% 0.00 in 435 W/m2
08:49 66.2 °F 58.8 °F 29.98 in NE 0.6 mph 3.5 mph 77.3% 0.00 in 449 W/m2
08:54 66.5 °F 58.5 °F 29.98 in East 0.4 mph 2.3 mph 75.7% 0.00 in 465 W/m2
08:59 66.8 °F 58.6 °F 29.98 in NE 1 mph 3.5 mph 75% 0.00 in 479 W/m2
09:04 67.1 °F 58.9 °F 29.98 in NE 0.8 mph 3.5 mph 75% 0.00 in 493 W/m2
09:09 67.4 °F 58.7 °F 29.98 in NE 0.5 mph 3 mph 73.8% 0.00 in 507 W/m2
09:14 67.7 °F 58.7 °F 29.98 in ENE 0.9 mph 3.5 mph 73% 0.00 in 519 W/m2
09:19 68 °F 59 °F 29.98 in NNE 0.2 mph 3 mph 73% 0.00 in 531 W/m2
09:24 68.3 °F 59.1 °F 29.98 in NNE 1 mph 4 mph 72.6% 0.00 in 545 W/m2
09:29 68.6 °F 59 °F 29.98 in NNW 0.9 mph 4 mph 71.4% 0.00 in 560 W/m2
09:34 69 °F 58.8 °F 29.98 in WNW 0.8 mph 2.3 mph 70.1% 0.00 in 575 W/m2
09:39 69.4 °F 59.1 °F 29.98 in NNE 1.1 mph 3.5 mph 69.6% 0.00 in 586 W/m2
09:44 69.8 °F 59.2 °F 29.97 in ENE 0.9 mph 5 mph 69% 0.00 in 598 W/m2
09:49 70.2 °F 59.6 °F 29.97 in ESE 1.6 mph 5 mph 69% 0.00 in 611 W/m2
09:54 70.6 °F 59.8 °F 29.97 in East 0.8 mph 3 mph 68.6% 0.00 in 621 W/m2
09:59 71 °F 59.6 °F 29.97 in NE 0.5 mph 2.3 mph 67.2% 0.00 in 633 W/m2
10:04 71.5 °F 59.4 °F 29.97 in NE 1.5 mph 5 mph 65.7% 0.00 in 648 W/m2
10:09 72 °F 59.5 °F 29.97 in ENE 1.2 mph 5 mph 64.7% 0.00 in 658 W/m2
10:14 72.5 °F 60 °F 29.97 in ENE 1.6 mph 5 mph 64.9% 0.00 in 667 W/m2
10:19 73 °F 59.7 °F 29.97 in NNE 1.1 mph 5 mph 63.2% 0.00 in 679 W/m2
10:24 73.5 °F 59.8 °F 29.97 in ENE 1.6 mph 4 mph 62.2% 0.00 in 688 W/m2
10:29 74 °F 60.1 °F 29.97 in East 0.6 mph 4 mph 61.9% 0.00 in 697 W/m2
10:34 74.5 °F 59.9 °F 29.96 in NNE 1.7 mph 6 mph 60.3% 0.00 in 711 W/m2
10:39 75.2 °F 59.7 °F 29.96 in NNE 1.5 mph 6 mph 58.7% 0.00 in 720 W/m2
10:44 75.8 °F 59.3 °F 29.96 in NNE 1.1 mph 4 mph 56.6% 0.00 in 732 W/m2
10:49 76.4 °F 59.2 °F 29.96 in North 1.5 mph 4 mph 55.3% 0.00 in 739 W/m2
10:54 77 °F 59.6 °F 29.96 in NE 1.7 mph 6 mph 55% 0.00 in 750 W/m2
10:59 77.5 °F 59.5 °F 29.96 in NNW 1.1 mph 6 mph 53.9% 0.00 in 757 W/m2
11:04 78 °F 59.8 °F 29.96 in NE 1.1 mph 3.5 mph 53.6% 0.00 in 767 W/m2
11:09 78.5 °F 60.1 °F 29.96 in NE 1.7 mph 5 mph 53.3% 0.00 in 774 W/m2
11:14 78.9 °F 59.6 °F 29.96 in North 1.8 mph 5 mph 51.7% 0.00 in 783 W/m2
11:19 79.4 °F 59.9 °F 29.96 in NW 1 mph 6 mph 51.5% 0.00 in 792 W/m2
11:24 79.8 °F 59.1 °F 29.96 in North 1.9 mph 6 mph 49.3% 0.00 in 802 W/m2
11:29 80.3 °F 58.7 °F 29.96 in NNW 0.6 mph 6 mph 47.9% 0.00 in 804 W/m2
11:34 80.8 °F 59.3 °F 29.95 in NE 1.5 mph 5 mph 48% 0.00 in 811 W/m2
11:39 81.2 °F 59 °F 29.95 in NNE 1.9 mph 6 mph 46.7% 0.00 in 820 W/m2
11:44 81.9 °F 58 °F 29.95 in NNE 1.6 mph 6 mph 44.2% 0.00 in 825 W/m2
11:49 82.5 °F 57.3 °F 29.95 in NNE 1.9 mph 5 mph 42.3% 0.00 in 830 W/m2
11:54 83.1 °F 56.8 °F 29.95 in North 2.8 mph 7 mph 40.8% 0.00 in 834 W/m2
11:59 83.7 °F 57.1 °F 29.95 in North 2.1 mph 7 mph 40.3% 0.00 in 838 W/m2
12:04 84.2 °F 57.2 °F 29.95 in North 2.8 mph 7 mph 39.9% 0.00 in 843 W/m2
12:09 84.8 °F 57.4 °F 29.95 in NNW 2.1 mph 7 mph 39.3% 0.00 in 846 W/m2
12:14 85.4 °F 57.4 °F 29.95 in North 1.9 mph 7 mph 38.7% 0.00 in 852 W/m2
12:19 85.9 °F 57.2 °F 29.95 in North 2.8 mph 7 mph 37.7% 0.00 in 855 W/m2
12:24 86.5 °F 56.1 °F 29.95 in NNW 2 mph 7 mph 35.7% 0.00 in 860 W/m2
12:29 87.1 °F 56.1 °F 29.95 in NNE 2.1 mph 6 mph 35% 0.00 in 862 W/m2
12:34 87.5 °F 56.2 °F 29.95 in North 2.1 mph 7 mph 34.6% 0.00 in 866 W/m2
12:39 88 °F 55.6 °F 29.95 in NNW 2.1 mph 7 mph 33.4% 0.00 in 869 W/m2
12:44 88.3 °F 54.6 °F 29.95 in North 3.2 mph 8.1 mph 31.8% 0.00 in 871 W/m2
12:49 88.7 °F 54 °F 29.95 in NNW 2.7 mph 8 mph 30.8% 0.00 in 871 W/m2
12:54 89 °F 53.6 °F 29.94 in North 3.7 mph 7 mph 30.1% 0.00 in 873 W/m2
12:59 89.4 °F 52.7 °F 29.94 in North 3.7 mph 7 mph 28.7% 0.00 in 874 W/m2
13:04 89.8 °F 53.2 °F 29.94 in NNW 1.8 mph 7 mph 28.8% 0.00 in 874 W/m2
13:09 90.3 °F 52.3 °F 29.94 in North 3 mph 7 mph 27.5% 0.00 in 874 W/m2
13:14 90.7 °F 52.8 °F 29.93 in NNE 2.3 mph 7 mph 27.6% 0.00 in 874 W/m2
13:19 91.2 °F 52.8 °F 29.93 in NNW 3 mph 10 mph 27.2% 0.00 in 876 W/m2
13:24 91.8 °F 53.6 °F 29.93 in NNW 2.8 mph 10.4 mph 27.5% 0.00 in 876 W/m2
13:29 92.3 °F 53.9 °F 29.93 in North 3.2 mph 8.1 mph 27.4% 0.00 in 880 W/m2
13:34 92.6 °F 53.5 °F 29.93 in North 2.9 mph 11 mph 26.8% 0.00 in 880 W/m2
13:39 93.1 °F 53.2 °F 29.93 in North 3.5 mph 12 mph 26.1% 0.00 in 876 W/m2
13:44 93.5 °F 52.6 °F 29.93 in NNW 2.8 mph 8 mph 25.2% 0.00 in 874 W/m2
13:49 93.9 °F 52.7 °F 29.93 in North 2.8 mph 7 mph 25% 0.00 in 873 W/m2
13:54 94.2 °F 53.6 °F 29.92 in NNW 1.9 mph 7 mph 25.6% 0.00 in 866 W/m2
13:59 94.6 °F 52.2 °F 29.92 in NNW 3.6 mph 8.1 mph 24% 0.00 in 866 W/m2
14:04 94.9 °F 52.4 °F 29.92 in NW 2.7 mph 8 mph 23.9% 0.00 in 860 W/m2
14:09 95.3 °F 52.4 °F 29.92 in NNW 3.3 mph 11.5 mph 23.7% 0.00 in 857 W/m2
14:14 95.7 °F 52 °F 29.92 in NNW 3.3 mph 12 mph 23% 0.00 in 852 W/m2
14:19 96 °F 52.1 °F 29.91 in NNW 2.6 mph 10 mph 22.9% 0.00 in 846 W/m2
14:24 96.3 °F 50.9 °F 29.91 in NNW 4.6 mph 10.4 mph 21.7% 0.00 in 843 W/m2
14:29 96.7 °F 50.4 °F 29.91 in NNW 4.4 mph 10.4 mph 21.1% 0.00 in 838 W/m2
14:34 97 °F 49.5 °F 29.91 in NNW 3.3 mph 10 mph 20.1% 0.00 in 834 W/m2
14:39 97.2 °F 49.5 °F 29.91 in NNW 3.3 mph 8 mph 20% 0.00 in 827 W/m2
14:44 97.4 °F 49 °F 29.91 in NW 2.7 mph 10.4 mph 19.5% 0.00 in 820 W/m2
14:49 97.6 °F 48.6 °F 29.90 in NNW 3.6 mph 12 mph 19.1% 0.00 in 813 W/m2
14:54 97.8 °F 48.4 °F 29.90 in NNW 3.8 mph 12 mph 18.8% 0.00 in 808 W/m2
14:59 98.1 °F 48.8 °F 29.90 in NNW 4.1 mph 10.4 mph 19% 0.00 in 802 W/m2
15:04 98.3 °F 48.6 °F 29.90 in NNW 3.1 mph 10.4 mph 18.7% 0.00 in 792 W/m2
15:09 98.5 °F 47.7 °F 29.90 in NNW 3.9 mph 10.4 mph 18% 0.00 in 787 W/m2
15:14 98.6 °F 47.7 °F 29.90 in NNW 3 mph 9 mph 18% 0.00 in 776 W/m2
15:19 98.7 °F 48.2 °F 29.89 in NNW 2.3 mph 8 mph 18.3% 0.00 in 769 W/m2
15:24 98.8 °F 49 °F 29.89 in NNW 3.9 mph 11.5 mph 18.8% 0.00 in 760 W/m2
15:29 99 °F 49.7 °F 29.89 in NNW 2.8 mph 12 mph 19.2% 0.00 in 750 W/m2
15:34 99.2 °F 50.1 °F 29.89 in NNW 3.2 mph 12 mph 19.3% 0.00 in 741 W/m2
15:39 99.2 °F 49.7 °F 29.89 in NNW 3.2 mph 10.4 mph 19% 0.00 in 730 W/m2
15:44 99.2 °F 50.2 °F 29.89 in NNW 3.9 mph 12 mph 19.4% 0.00 in 721 W/m2
15:49 99.4 °F 49.5 °F 29.88 in NW 3.1 mph 12 mph 18.8% 0.00 in 711 W/m2
15:54 99.4 °F 51.2 °F 29.88 in NNW 2.9 mph 10.4 mph 20% 0.00 in 702 W/m2
15:59 99.4 °F 52.8 °F 29.88 in North 3.3 mph 10 mph 21.2% 0.00 in 690 W/m2
16:04 99.4 °F 52 °F 29.88 in NNW 3.9 mph 11.5 mph 20.6% 0.00 in 679 W/m2
16:09 99.4 °F 52.5 °F 29.88 in NNW 2.3 mph 12 mph 20.9% 0.00 in 669 W/m2
16:14 99.4 °F 52.7 °F 29.88 in NNW 3.9 mph 8.1 mph 21.1% 0.00 in 655 W/m2
16:19 99.2 °F 50 °F 29.88 in NW 4.2 mph 11.5 mph 19.2% 0.00 in 648 W/m2
16:24 99.2 °F 47 °F 29.87 in NNW 3.3 mph 12 mph 17.2% 0.00 in 635 W/m2
16:29 99.1 °F 44.7 °F 29.87 in NNW 4.4 mph 14 mph 15.8% 0.00 in 612 W/m2
16:34 99.1 °F 44.3 °F 29.87 in NW 4.1 mph 16 mph 15.6% 0.00 in 570 W/m2
16:39 99 °F 43.3 °F 29.87 in NNW 4.9 mph 16.1 mph 15% 0.00 in 530 W/m2
16:44 99 °F 44.1 °F 29.87 in NNW 4.6 mph 16.1 mph 15.5% 0.00 in 493 W/m2
16:49 99 °F 43.9 °F 29.87 in NNW 5.1 mph 16 mph 15.4% 0.00 in 459 W/m2
16:54 99 °F 44.5 °F 29.87 in NNW 4.7 mph 13 mph 15.7% 0.00 in 431 W/m2
16:59 98.7 °F 44.2 °F 29.88 in NW 3.2 mph 12 mph 15.7% 0.00 in 424 W/m2
17:04 98.7 °F 43.6 °F 29.88 in NNW 3.1 mph 13 mph 15.4% 0.00 in 413 W/m2
17:09 98.6 °F 43.4 °F 29.87 in NNW 3.9 mph 13 mph 15.3% 0.00 in 392 W/m2
17:14 98.4 °F 43.4 °F 29.87 in NW 3.9 mph 12 mph 15.3% 0.00 in 348 W/m2
17:19 98.2 °F 44.1 °F 29.87 in WNW 3.2 mph 12 mph 15.9% 0.00 in 373 W/m2
17:24 98 °F 42.6 °F 29.87 in NNW 4.7 mph 12 mph 15% 0.00 in 401 W/m2
17:29 97.8 °F 42.8 °F 29.87 in NNW 4.9 mph 13 mph 15.3% 0.00 in 422 W/m2
17:34 97.5 °F 43.8 °F 29.87 in NNW 3.9 mph 13 mph 16% 0.00 in 433 W/m2
17:39 97.4 °F 43.4 °F 29.87 in NNW 4.1 mph 13 mph 15.8% 0.00 in 433 W/m2
17:44 97.2 °F 43.5 °F 29.87 in NNW 3.9 mph 13 mph 16% 0.00 in 422 W/m2
17:49 97 °F 43.3 °F 29.87 in NNW 4.5 mph 13 mph 16% 0.00 in 408 W/m2
17:54 96.8 °F 43.2 °F 29.87 in NNW 3.7 mph 13 mph 16% 0.00 in 392 W/m2
17:59 96.5 °F 42.9 °F 29.87 in NNW 5.3 mph 13 mph 16% 0.00 in 359 W/m2
18:04 96.2 °F 42.8 °F 29.87 in NNW 4.6 mph 14 mph 16.1% 0.00 in 318 W/m2
18:09 95.9 °F 43.6 °F 29.87 in NNW 4 mph 14 mph 16.7% 0.00 in 280 W/m2
18:14 95.7 °F 43.9 °F 29.87 in NNW 4.4 mph 12 mph 17% 0.00 in 262 W/m2
18:19 95.5 °F 43.7 °F 29.87 in NNW 4.6 mph 12 mph 17% 0.00 in 264 W/m2
18:24 95.3 °F 43.6 °F 29.87 in NNW 4.5 mph 12 mph 17% 0.00 in 264 W/m2
18:29 95 °F 43.3 °F 29.87 in NNW 5.3 mph 12 mph 17% 0.00 in 264 W/m2
18:34 94.7 °F 43.1 °F 29.87 in NNW 4.5 mph 12 mph 17% 0.00 in 248 W/m2
18:39 94.4 °F 42.9 °F 29.87 in NNW 4.3 mph 10.4 mph 17% 0.00 in 236 W/m2
18:44 94.1 °F 42.6 °F 29.87 in NNW 5.1 mph 12 mph 17% 0.00 in 218 W/m2
18:49 93.8 °F 43.3 °F 29.87 in NNW 4.5 mph 12 mph 17.6% 0.00 in 204 W/m2
18:54 93.5 °F 43.6 °F 29.87 in NNW 4 mph 12 mph 17.9% 0.00 in 188 W/m2
18:59 93.3 °F 45.1 °F 29.88 in NNW 3.2 mph 10 mph 19.2% 0.00 in 174 W/m2
19:04 93.1 °F 47.6 °F 29.88 in North 2.9 mph 7 mph 21.2% 0.00 in 158 W/m2
19:09 92.9 °F 49.5 °F 29.88 in North 2.7 mph 8.1 mph 22.9% 0.00 in 62 W/m2
19:14 92.6 °F 49.4 °F 29.88 in North 3.6 mph 8.1 mph 23% 0.00 in 30 W/m2
19:19 92.4 °F 49.9 °F 29.88 in North 3.9 mph 8.1 mph 23.6% 0.00 in 30 W/m2
19:24 92 °F 51.5 °F 29.88 in North 2.3 mph 8.1 mph 25.4% 0.00 in 28 W/m2
19:29 91.6 °F 52.1 °F 29.88 in North 2.4 mph 7 mph 26.2% 0.00 in 25 W/m2
19:34 91.3 °F 52.3 °F 29.88 in North 2.1 mph 7 mph 26.7% 0.00 in 23 W/m2
19:39 90.9 °F 52.2 °F 29.89 in North 1.8 mph 6 mph 26.9% 0.00 in 21 W/m2
19:44 90.6 °F 52.9 °F 29.89 in North 1.3 mph 5 mph 27.9% 0.00 in 21 W/m2
19:49 90.2 °F 53 °F 29.89 in North 1 mph 4 mph 28.3% 0.00 in 19 W/m2
19:54 89.8 °F 54.8 °F 29.89 in NW 0.4 mph 3.5 mph 30.7% 0.00 in 18 W/m2
19:59 89.5 °F 54.9 °F 29.89 in NNW 0.9 mph 5 mph 31.1% 0.00 in 16 W/m2
20:04 89.1 °F 53.6 °F 29.89 in NNW 0.4 mph 5 mph 30% 0.00 in 14 W/m2
20:09 88.7 °F 55.1 °F 29.89 in North 0.7 mph 2.3 mph 32.2% 0.00 in 12 W/m2
20:14 88.2 °F 59.2 °F 29.90 in NNW 0.3 mph 2.3 mph 37.7% 0.00 in 11 W/m2
Saratoga, California, USA
Compliments of Weather Underground - 6 mb

WU-history PHP script courtesy of Juneau County Weather and modified for WU/TWC API use by Saratoga-weather.org

This script set is available on GitHub.

deformed-offering